Location: Silverdale
(47.6506°N, 122.6941°W)
Time: 16:02:55
(UTC+00:00)

Tiros 1 - Visible Passes

Search period start: 26 September 2022 00:00
Search period end: 06 October 2022 00:00
Orbit: 629 x 663 km, 48.4° (Epoch: 25 September)

Date Brightness Start Highest point End Pass type
(mag) Time Alt. Az. Time Alt. Az. Time Alt. Az.
26 Sep 9.8 10:13:23 14° E 10:13:23 14° E 10:14:07 10° E visible
26 Sep 7.0 11:51:01 67° WSW 11:51:40 88° S 11:56:25 10° E visible
26 Sep 7.2 13:29:11 10° W 13:33:58 86° N 13:38:40 10° E visible
27 Sep 9.2 10:37:55 24° E 10:37:55 24° E 10:39:53 10° ENE visible
27 Sep 7.1 12:15:34 38° W 12:17:22 81° N 12:22:06 10° E visible
28 Sep 8.3 11:02:28 40° E 11:02:28 40° E 11:05:33 10° E visible
28 Sep 7.1 12:40:07 23° W 12:43:05 84° N 12:47:49 10° E visible
29 Sep 7.4 11:27:03 68° ENE 11:27:03 68° ENE 11:31:14 10° E visible
29 Sep 7.1 13:04:42 14° WNW 13:08:45 78° SSW 13:13:27 10° ESE visible
30 Sep 9.9 10:14:02 14° E 10:14:02 14° E 10:14:41 10° ENE visible
30 Sep 7.1 11:51:40 70° WNW 11:52:13 83° N 11:56:57 10° E visible
30 Sep 7.5 13:29:41 10° WNW 13:34:19 53° SSW 13:38:52 10° SE visible
01 Oct 9.4 10:38:42 22° E 10:38:42 22° E 10:40:22 10° E visible
01 Oct 7.1 12:16:21 43° W 12:17:53 81° SSW 12:22:37 10° ESE visible
02 Oct 8.6 11:03:26 33° E 11:03:26 33° E 11:06:05 10° E visible
02 Oct 7.3 12:41:05 27° W 12:43:27 56° SSW 12:48:04 10° SE visible
03 Oct 7.8 11:28:16 49° ESE 11:28:16 49° ESE 11:31:45 10° ESE visible
03 Oct 8.0 13:05:56 17° W 13:08:52 34° SSW 13:13:06 10° SSE visible
04 Oct 7.4 11:53:13 54° SSE 11:53:13 54° SSE 11:57:14 10° SE visible
04 Oct 8.7 13:30:53 10° W 13:34:07 19° SW 13:37:22 10° S visible
05 Oct 10.0 10:40:38 11° ESE 10:40:38 11° ESE 10:40:52 10° ESE visible
05 Oct 7.8 12:18:18 36° SSW 12:18:18 36° SSW 12:22:20 10° SE visible
